星链-36634(STARLINK-36634)

导读

STARLINK-36634是美国星链互联网卫星项目中的一颗卫星,于2026年1月29日发射升空。星链项目旨在通过低轨卫星星座,为全球提供覆盖广泛、高速稳定的互联网接入服务,这颗卫星加入星座后将进一步提升星链系统的服务覆盖能力与网络容量,推进项目组网建设进程。

Basic Information
目录编号:
67593
目录名称:
STARLINK-36634
国际标识:
2026-018E
轨道中心:
EARTH
卫星名称:
星链-36634
卫星全名:
星链-36634(STARLINK-36634)
卫星状态:
在轨 (已飞行218 天)
发射日期:
2026-01-29 UTC
国别 :
美国 (US)
星等 :
--
Orbit Information
数据来源 国际轨道数据
星历时间: 2026-09-03T11:48:31+0800
1天前
查看轨道信息
半长轴: 6843.656km
偏心率: 0.0001315
轨道倾角: 97.285°
近地点辐角 66.576°
升交点赤经 309.878°
平近点角 293.563°
近地点: 464.619km
远地点: 466.419km
周期: 93.906分钟
每日圈数: 15.334533
Detailed Information
固有亮度:
5
最大亮度:
2.5
卫星平台:
Starlink V1.0
覆盖范围:
全球
运营商:
太空探索技术公司
运营商所在国:
美国
制造商(研发单位):
太空探索技术公司
制造商所在国:
美国
使用方式:
暂无
Satellite Introduction
Starlink 计划是 SpaceX 推出的全球卫星互联网项目,通过发射低轨道卫星,为全球尤其是偏远地区提供高速、低延迟的互联网服务。自 2019 年起,Starlink 已部署数千颗卫星,旨在缩小全球数字鸿沟,推动互联网普及。该项目还为军事、航空等行业提供通信支持,带来广泛经济效益。
2D Orbit Map
3D Orbit Map
Orbit Altitude Analysis Chart
Orbit Inclination Analysis Chart
Orbit Comprehensive Analysis Chart
View Comprehensive Chart
Conjunction Data List
Event ID Objects TCA Miss Dist (km) Collision Risk Probability Collision Risk Index (CRI) Action
CDM_260904-193706-166406-759321
2026-09-04T
19:37:27+0000
2.972 km
极远距离
8.542304E-7 极低风险 0.34